TimeEST,TemperatureF,Dew PointF,Humidity,Sea Level PressureIn,VisibilityMPH,Wind Direction,Wind SpeedMPH,Gust SpeedMPH,PrecipitationIn,Events,Conditions,WindDirDegrees,DateUTC
12:53 AM,46.9,39.0,74,29.73,10.0,South,18.4,33.4,0.04,,Overcast,180,2013-02-19 05:53:00
1:51 AM,46.4,39.2,76,29.71,10.0,South,12.7,23.0,0.01,Rain,Light Rain,190,2013-02-19 06:51:00
1:53 AM,46.0,39.9,79,29.71,10.0,South,13.8,23.0,0.01,Rain,Light Rain,190,2013-02-19 06:53:00
2:00 AM,46.4,39.2,76,29.70,10.0,South,11.5,20.7,0.00,,Overcast,190,2013-02-19 07:00:00
2:53 AM,46.0,39.9,79,29.68,10.0,South,12.7,25.3,0.01,Rain,Light Rain,190,2013-02-19 07:53:00
3:53 AM,45.0,41.0,86,29.67,7.0,SSW,12.7,29.9,0.01,Rain,Light Rain,200,2013-02-19 08:53:00
4:32 AM,41.0,37.4,87,29.71,4.0,West,17.3,27.6,0.04,Rain,Rain,280,2013-02-19 09:32:00
4:40 AM,39.2,35.6,87,29.71,7.0,WNW,13.8,28.8,0.05,Rain,Light Rain,290,2013-02-19 09:40:00
4:53 AM,37.9,35.1,89,29.73,10.0,West,12.7,21.9,0.05,Rain,Light Rain,270,2013-02-19 09:53:00
5:01 AM,37.4,33.8,87,29.73,10.0,West,11.5,21.9,0.01,Rain,Light Rain,280,2013-02-19 10:01:00
5:19 AM,33.8,32.0,93,29.75,3.0,West,9.2,21.9,0.06,Snow,Light Snow,260,2013-02-19 10:19:00
5:35 AM,35.6,33.8,93,29.75,10.0,West,11.5,17.3,0.06,Rain,Light Rain,270,2013-02-19 10:35:00
5:43 AM,35.6,33.8,93,29.75,10.0,West,9.2,-,0.06,,Overcast,270,2013-02-19 10:43:00
5:53 AM,36.0,33.1,89,29.78,10.0,West,15.0,23.0,0.06,,Overcast,270,2013-02-19 10:53:00
6:53 AM,33.1,28.0,82,29.81,10.0,West,13.8,24.2,N/A,,Overcast,280,2013-02-19 11:53:00
7:53 AM,33.1,27.0,78,29.84,10.0,West,10.4,21.9,N/A,,Overcast,270,2013-02-19 12:53:00
8:53 AM,33.1,26.1,75,29.87,10.0,WSW,13.8,20.7,N/A,,Overcast,250,2013-02-19 13:53:00
9:33 AM,32.0,21.2,64,29.87,10.0,West,15.0,28.8,N/A,,Overcast,270,2013-02-19 14:33:00
9:44 AM,32.0,23.0,69,29.87,10.0,West,13.8,19.6,N/A,,Overcast,270,2013-02-19 14:44:00
9:53 AM,32.0,24.1,73,29.88,10.0,West,11.5,21.9,N/A,,Overcast,260,2013-02-19 14:53:00
10:25 AM,33.8,21.2,60,29.88,10.0,West,16.1,36.8,N/A,,Overcast,260,2013-02-19 15:25:00
10:53 AM,33.1,21.9,64,29.90,10.0,West,16.1,26.5,N/A,,Overcast,260,2013-02-19 15:53:00
11:53 AM,30.9,21.0,67,29.93,10.0,West,15.0,25.3,N/A,,Overcast,270,2013-02-19 16:53:00
12:02 PM,30.2,19.4,64,29.92,10.0,West,17.3,25.3,N/A,,Overcast,270,2013-02-19 17:02:00
1:53 PM,32.0,19.9,61,29.94,10.0,West,11.5,21.9,N/A,,Overcast,270,2013-02-19 18:53:00
2:53 PM,32.0,19.0,59,29.95,10.0,West,15.0,27.6,N/A,,Overcast,260,2013-02-19 19:53:00
3:53 PM,30.9,17.1,57,29.99,10.0,West,16.1,26.5,N/A,,Overcast,270,2013-02-19 20:53:00
4:53 PM,30.0,17.1,59,30.02,10.0,West,15.0,25.3,0.00,,Overcast,270,2013-02-19 21:53:00
5:53 PM,28.9,14.0,54,30.06,10.0,West,15.0,28.8,N/A,,Overcast,270,2013-02-19 22:53:00
7:53 PM,27.0,14.0,58,30.12,9.0,West,11.5,23.0,0.00,Snow,Light Snow,270,2013-02-20 00:53:00
8:53 PM,26.1,15.1,63,30.14,6.0,West,17.3,27.6,0.00,Snow,Light Snow,270,2013-02-20 01:53:00
9:53 PM,26.1,15.1,63,30.14,9.0,West,8.1,17.3,0.00,,Overcast,280,2013-02-20 02:53:00
10:53 PM,25.0,16.0,69,30.15,9.0,West,8.1,-,0.00,,Overcast,270,2013-02-20 03:53:00
11:53 PM,25.0,15.1,66,30.16,10.0,West,13.8,21.9,0.00,,Overcast,270,2013-02-20 04:53:00